"Pseudo-MPEC" for P217S9g

Created 2020 Oct 19 9:07:42 UT using Find_Orb

Click here for an explanation of pseudo-MPECs

 
 Astrometry: 
     P217S9g  C2020 10 14(=QR%Si-RN)sqr8c*DG@AstrometryU%W/d'-redacted;2KBO.9F52
     P217S9g  C2020 10 14Z:h*L@2/nclick]',FePH`,M=okx#$$E-29AW/d]*vGxY(*ZH4\.F52
     P217S9g  C2020 10 14t/KjImXMl?9+at=p^T[URn^6(,KdnyMsi(B6`J]Z=BA797vHl1#DF52
     P217S9g 4C2020 10 16Y;[!`o_.h)6esPiVd,S+xlwN:i9gL3h5bI*WM+G8$Q[5ghG?4xGOJ04
     P217S9g 4C2020 10 16A`G/341!ItJ.P[[here[\M94.N*Opfor+I+*p4KW5ZjIFEstJ[J_J04
     P217S9g 4C2020 10 16p_BexplanationCx0+':4wE]\)TJU1_iUc5T6c$q3dgr`dKpoR0)J04
     P217S9g KC2020 10 19.05519707 07 45.09 +37 08 07.9    ~AJ8q 19.9 GVNEOCPC95
     P217S9g KC2020 10 19.10002907 07 51.31 +37 08 47.2    ~AJ8q 19.6 GVNEOCPC95
     P217S9g KC2020 10 19.14475107 07 57.69 +37 09 25.7    ~AJ8q 19.5 GVNEOCPC95

Station data:
(C95) SATINO Remote Observatory, Haute Provence  (N43.932042 E5.712390)
   France.  Observer J. Jahn. 0.60-m f/3.2 Newtonian reflector + CCD.
(F52) Pan-STARRS 2, Haleakala  (N20.707384 W156.255910)  US/Hawaii. 1.8-m
   Ritchey-Chrétien + CCD.
(J04) ESA Optical Ground Station, Tenerife  (N28.300924 W16.511830)  Canary
   Islands (Spain).  Observer D. Abreu. Measurers M. Micheli, D. Koschny, E.
   Schwab, M. Busch, A. Knöfel. 1.0-m f/4.4 reflector + CCD.

Orbital elements:  P217S9g
   Perihelion 2020 Sep 24.242491 +/- 1.1 TT =  5:49:11 (JD 2459116.742491)
Epoch 2020 Oct 19.0 TT = JDT 2459141.5   Earth MOID: 0.5759   AutoNEOCP
M   5.58769371 +/- 0.7              (J2000 ecliptic)
n   0.22569693 +/- 0.0227           Peri.   21.75904 +/- 0.51
a   2.67168721 +/- 0.179            Node    29.40596 +/- 0.6
e   0.4171448 +/- 0.0337            Incl.   16.01472 +/- 0.23
P   4.37                   H 18.2   G  0.15   U 10.2  
q 1.55720664 +/- 0.0157    Q 3.78616778 +/- 0.366
From 9 observations 2020 Oct. 14-19; mean residual 0".31
Residuals in arcseconds: 
201014 F52  .02+  .16+    201016 J04  .10-  .10+    201019 C95  .96+  .10-    
201014 F52  .12-  .00     201016 J04  .02-  .08-    201019 C95  .80-  .15+    
201014 F52  .14+  .20-    201016 J04  .04+  .03+    201019 C95  .13-  .07-    

Ephemerides (geocentric):
Date (UTC) HH   RA              Dec         delta   r     elong  mag " sig PA
---- -- -- --  -------------   -----------  ------ ------ -----  --- ---- ---
2020 10 19 09  07 08 30.676   +37 12 43.78  1.0319 1.5731 101.7 20.8 .245 159
2020 10 19 10  07 08 36.670   +37 13 19.40  1.0317 1.5732 101.8 20.8 .265 159
2020 10 19 11  07 08 42.662   +37 13 55.01  1.0315 1.5732 101.8 20.8 .285 159
2020 10 19 12  07 08 48.651   +37 14 30.63  1.0313 1.5733 101.8 20.8 .306 159
2020 10 19 13  07 08 54.638   +37 15 06.25  1.0311 1.5733 101.8 20.8 .327 159
2020 10 19 14  07 09 00.623   +37 15 41.87  1.0308 1.5734 101.8 20.8 .348 159
2020 10 19 15  07 09 06.606   +37 16 17.48  1.0306 1.5734 101.9 20.8 .370 159
2020 10 19 16  07 09 12.586   +37 16 53.11  1.0304 1.5735 101.9 20.8 .392 158
2020 10 19 17  07 09 18.564   +37 17 28.73  1.0302 1.5736 101.9 20.8 .414 158
2020 10 19 18  07 09 24.540   +37 18 04.35  1.0300 1.5736 101.9 20.8 .437 158
2020 10 19 19  07 09 30.514   +37 18 39.98  1.0297 1.5737 101.9 20.8 .460 158
2020 10 19 20  07 09 36.485   +37 19 15.60  1.0295 1.5737 102.0 20.8 .484 158
2020 10 19 21  07 09 42.454   +37 19 51.23  1.0293 1.5738 102.0 20.8 .508 158
2020 10 19 22  07 09 48.421   +37 20 26.86  1.0291 1.5738 102.0 20.8 .532 158
2020 10 19 23  07 09 54.386   +37 21 02.49  1.0289 1.5739 102.0 20.8 .557 158
2020 10 20 00  07 10 00.348   +37 21 38.12  1.0287 1.5739 102.0 20.8 .581 158
2020 10 20 01  07 10 06.308   +37 22 13.75  1.0284 1.5740 102.1 20.8 .607 158
2020 10 20 02  07 10 12.265   +37 22 49.39  1.0282 1.5740 102.1 20.8 .632 158
2020 10 20 03  07 10 18.220   +37 23 25.02  1.0280 1.5741 102.1 20.8 .658 158
2020 10 20 04  07 10 24.173   +37 24 00.66  1.0278 1.5741 102.1 20.8 .685 158
2020 10 20 05  07 10 30.124   +37 24 36.30  1.0276 1.5742 102.1 20.8 .712 158
2020 10 20 06  07 10 36.072   +37 25 11.93  1.0274 1.5742 102.2 20.8 .739 158
2020 10 20 07  07 10 42.018   +37 25 47.58  1.0271 1.5743 102.2 20.8 .766 158
2020 10 20 08  07 10 47.962   +37 26 23.22  1.0269 1.5744 102.2 20.8 .794 158
2020 10 20 09  07 10 53.904   +37 26 58.86  1.0267 1.5744 102.2 20.8 .822 158
2020 10 20 10  07 10 59.843   +37 27 34.51  1.0265 1.5745 102.3 20.8 .851 158
2020 10 20 11  07 11 05.779   +37 28 10.15  1.0263 1.5745 102.3 20.8 .880 158
2020 10 20 12  07 11 11.714   +37 28 45.80  1.0261 1.5746 102.3 20.8 .909 158
2020 10 20 13  07 11 17.646   +37 29 21.45  1.0259 1.5746 102.3 20.8 .939 158
2020 10 20 14  07 11 23.576   +37 29 57.10  1.0256 1.5747 102.3 20.8 .969 158
2020 10 20 15  07 11 29.503   +37 30 32.75  1.0254 1.5747 102.4 20.8 1.00 158
2020 10 20 16  07 11 35.428   +37 31 08.41  1.0252 1.5748 102.4 20.8 1.03 158
2020 10 20 17  07 11 41.351   +37 31 44.06  1.0250 1.5748 102.4 20.8 1.06 158
2020 10 20 18  07 11 47.271   +37 32 19.72  1.0248 1.5749 102.4 20.8 1.09 158
2020 10 20 19  07 11 53.189   +37 32 55.38  1.0246 1.5750 102.4 20.8 1.12 158
2020 10 20 20  07 11 59.105   +37 33 31.04  1.0243 1.5750 102.5 20.8 1.16 158
2020 10 20 21  07 12 05.018   +37 34 06.70  1.0241 1.5751 102.5 20.8 1.19 158
2020 10 20 22  07 12 10.929   +37 34 42.36  1.0239 1.5751 102.5 20.8 1.22 158
2020 10 20 23  07 12 16.837   +37 35 18.03  1.0237 1.5752 102.5 20.8 1.26 158
2020 10 21 00  07 12 22.744   +37 35 53.70  1.0235 1.5752 102.6 20.8 1.29 158
2020 10 21 01  07 12 28.647   +37 36 29.36  1.0233 1.5753 102.6 20.8 1.32 158
2020 10 21 02  07 12 34.549   +37 37 05.03  1.0231 1.5753 102.6 20.8 1.36 158
2020 10 21 03  07 12 40.448   +37 37 40.71  1.0228 1.5754 102.6 20.8 1.39 158
2020 10 21 04  07 12 46.344   +37 38 16.38  1.0226 1.5755 102.6 20.8 1.43 158
2020 10 21 05  07 12 52.239   +37 38 52.05  1.0224 1.5755 102.7 20.8 1.46 158
2020 10 21 06  07 12 58.131   +37 39 27.73  1.0222 1.5756 102.7 20.8 1.50 158
2020 10 21 07  07 13 04.020   +37 40 03.41  1.0220 1.5756 102.7 20.8 1.54 158
2020 10 21 08  07 13 09.907   +37 40 39.09  1.0218 1.5757 102.7 20.8 1.57 158